User: anonymous   Login
Location: Ostrava
(49.8330°N, 18.2830°E)
Time: 15:52:18
(UTC+02:00)
Language:

Cosmos 1766 - Orbit

View from above orbital plane
View from above orbital plane
View from above satellite
View from above satellite

Ground track
Ground track

The orbit data is extracted from the following two-line orbital elements,

1 16881U 86055A   17177.77875880 +.00000053 +00000-0 +13426-5 0  9990
2 16881 082.5027 014.3061 0018379 068.7138 291.6052 15.10111421661720
Epoch (UTC): 26 June 2017 18:41:24
Eccentricity: 0.0018379
inclination: 82.5027°
perigee height: 523 km
apogee height: 548 km
right ascension of ascending node: 14.3061°
argument of perigee: 68.7138°
revolutions per day: 15.10111421
mean anomaly at epoch: 291.6052°
orbit number at epoch: 66172

The dashed part of the orbit path shows where the satellite is in the earth's shadow,  

DLR